Location: *
(55.6049°S, 142.1985°W)
Time: 04:12:11
(UTC+00:00)

Timation 2 Rocket - Pass Details

Date: 12 May 2021
Orbit: 907 x 1074 km, 70.0° (Epoch: 23 June)

Event Time Altitude Azimuth Distance (km) Brightness Sun altitude
Exits shadow 15:14:45 - 317° (NW) 3,500 6.6 -16.5°
Reaches altitude 10° 15:16:39 10° 316° (NW) 2,807 6.1 -16.2°
Maximum altitude 15:23:17 74° 230° (SW) 1,100 4.1 -15.3°
Drops below altitude 10° 15:30:12 10° 144° (SE) 2,928 6.8 -14.3°
Sets 15:32:54 0° 142° (SE) 3,897 7.5 -13.9°
